Weather History for KDGW - October, 2012

Change the Weather History Date:

Wednesday, October 3, 2012

  Actual Average Record
Temperature  
Mean Temperature 44 °F 50 °F  
Max Temperature 57 °F 66 °F 83 °F (2011)
Min Temperature 30 °F 34 °F 21 °F (1978)
Degree Days  
Heating Degree Days 21 15  
Month to date heating degree days 36 43  
Since 1 July heating degree days 164 312  
Cooling Degree Days 0 0  
Month to date cooling degree days 0 0  
Year to date cooling degree days 831 486  
Moisture  
Dew Point 27 °F    
Average Humidity 52    
Maximum Humidity 75    
Minimum Humidity 28    
Precipitation  
Precipitation 0.00 in 0.04 in 0.38 in (2013)
Month to date precipitation 0.01 0.14  
Year to date precipitation 4.20 11.42  
Sea Level Pressure  
Sea Level Pressure 30.08 in    
Wind  
Wind Speed 17 mph (NNW)    
Max Wind Speed 37 mph    
Max Gust Speed 44 mph    
Visibility 10 miles    
Events      
T = Trace of Precipitation, MM = Missing Value Source: NWS Daily Summary

Daily Weather History Graph

Daily Weather History Graph

Search for Another Location

Airport or City:

Trip Planner

Search our weather history database for the weather conditions in past years. The results will help you decide how hot, cold, wet, or windy it might be!

Date:

Astronomy

Oct. 03, 2012 Rise Set
Actual Time 7:01 AM MDT 6:38 PM MDT
Civil Twilight 6:33 AM MDT 7:06 PM MDT
Nautical Twilight 6:00 AM MDT 7:39 PM MDT
Astronomical Twilight 5:27 AM MDT 8:12 PM MDT
Moon 8:26 PM MDT (10/3) 10:33 AM MDT (10/3)
Length of Visible Light 12h 33m
Length of Day
11h 36m
Waning Gibbous, 88% of the Moon is Illuminated
Oct 3
Waning Gibbous
Oct 8
Last Quarter
Oct 15
New
Oct 21
First Quarter
Oct 29
Full

Hourly Weather History & Observations

Time (MDT) Temp. Windchill Dew Point Humidity Pressure Visibility Wind Dir Wind Speed Gust Speed Precip Events Conditions
12:53 AM 52.0 °F - 19.9 °F 28% 29.65 in 10.0 mi NNW 6.9 mph - N/A   Clear
1:53 AM 50.0 °F - 19.9 °F 31% 29.67 in 10.0 mi NW 4.6 mph - N/A   Clear
2:53 AM 51.1 °F - 21.9 °F 32% 29.68 in 10.0 mi NNW 6.9 mph - N/A   Clear
3:53 AM 46.0 °F 43.9 °F 21.9 °F 39% 29.69 in 10.0 mi North 4.6 mph - N/A   Clear
4:53 AM 46.0 °F 42.5 °F 23.0 °F 40% 29.69 in 10.0 mi North 6.9 mph - N/A   Clear
5:53 AM 41.0 °F 39.0 °F 23.0 °F 49% 29.71 in 10.0 mi NNE 3.5 mph - N/A   Clear
6:53 AM 39.0 °F 36.8 °F 23.0 °F 53% 29.74 in 10.0 mi East 3.5 mph - N/A   Clear
7:53 AM 42.1 °F 40.2 °F 23.0 °F 47% 29.77 in 10.0 mi NNW 3.5 mph - N/A   Clear
9:53 AM 54.0 °F - 30.9 °F 41% 29.81 in 10.0 mi NNW 23.0 mph 28.8 mph N/A   Clear
10:53 AM 55.0 °F - 33.1 °F 43% 29.86 in 10.0 mi NNW 25.3 mph 31.1 mph N/A   Clear
11:53 AM 48.9 °F - 34.0 °F 56% 29.92 in 10.0 mi North 35.7 mph 43.7 mph N/A   Clear
12:53 PM 50.0 °F - 33.1 °F 52% 29.98 in 10.0 mi North 32.2 mph 42.6 mph N/A   Partly Cloudy
1:53 PM 51.1 °F - 32.0 °F 48% 30.02 in 10.0 mi NNW 29.9 mph 36.8 mph N/A   Mostly Cloudy
2:43 PM 44.6 °F 34.6 °F 30.2 °F 57% 30.11 in 10.0 mi NNW 31.1 mph 39.1 mph N/A   Overcast
3:16 PM 42.8 °F 32.5 °F 30.2 °F 61% 30.14 in 10.0 mi NNW 28.8 mph 38.0 mph N/A   Overcast
3:53 PM 41.0 °F 30.9 °F 30.0 °F 65% 30.17 in 10.0 mi NNW 24.2 mph 34.5 mph N/A   Overcast
4:37 PM 41.0 °F 30.5 °F 26.6 °F 57% 30.22 in 10.0 mi NNW 26.5 mph 38.0 mph N/A   Overcast
4:53 PM 41.0 °F 29.7 °F 26.1 °F 55% 30.22 in 10.0 mi NNW 31.1 mph 39.1 mph N/A   Overcast
5:53 PM 37.9 °F 25.5 °F 26.1 °F 62% 30.29 in 10.0 mi NNW 31.1 mph 40.3 mph N/A   Overcast
6:53 PM 36.0 °F 25.3 °F 26.1 °F 67% 30.35 in 10.0 mi NNW 19.6 mph 26.5 mph N/A   Overcast
7:53 PM 36.0 °F 25.0 °F 27.0 °F 70% 30.36 in 10.0 mi NNW 20.7 mph 26.5 mph N/A   Overcast
8:44 PM 35.6 °F 25.9 °F 26.6 °F 70% 30.36 in 10.0 mi NNW 16.1 mph 24.2 mph N/A   Overcast
8:53 PM 35.1 °F 24.5 °F 27.0 °F 72% 30.36 in 10.0 mi NNW 18.4 mph 26.5 mph N/A   Mostly Cloudy
9:01 PM 35.6 °F 25.5 °F 26.6 °F 70% 30.36 in 10.0 mi NNW 17.3 mph 24.2 mph N/A   Mostly Cloudy
9:09 PM 35.6 °F 27.1 °F 26.6 °F 70% 30.36 in 10.0 mi NW 12.7 mph 23.0 mph N/A   Mostly Cloudy
9:53 PM 35.1 °F 25.5 °F 28.0 °F 76% 30.36 in 10.0 mi NW 15.0 mph - N/A   Scattered Clouds
10:03 PM 35.6 °F 26.6 °F 26.6 °F 70% 30.38 in 10.0 mi NW 13.8 mph - N/A   Mostly Cloudy
10:53 PM 34.0 °F 23.8 °F 26.1 °F 73% 30.38 in 10.0 mi NW 16.1 mph - N/A   Scattered Clouds
11:03 PM 33.8 °F 23.9 °F 26.6 °F 75% 30.40 in 10.0 mi NW 15.0 mph - N/A   Mostly Cloudy
11:53 PM 34.0 °F 24.2 °F 27.0 °F 75% 30.41 in 10.0 mi NW 15.0 mph - N/A   Overcast